This is the latest recevied weather packets stored in our database for station/object K1RFS. If no packets are shown the sender has not sent any weather packets the latest 10 day(s).
| Time | Temp. | Humidity | Pressure | Rain* | Wind** | Luminosity | Snow |
|---|---|---|---|---|---|---|---|
| 1787794785 | 30° C | 35% | 1005.7 hPa | 0 mm | - | 17 W/m² | - |
| 1787794481 | 30.56° C | 34% | 1005.6 hPa | 0 mm | - | 30 W/m² | - |
| 1787794176 | 31.11° C | 34% | 1005.6 hPa | 0 mm | - | 37 W/m² | - |
| 1787793872 | 31.11° C | 32% | 1005.8 hPa | 0 mm | - | 44 W/m² | - |
| 1787793567 | 31.67° C | 31% | 1005.6 hPa | 0 mm | - | 53 W/m² | - |
| 1787793263 | 31.11° C | 33% | 1005.6 hPa | 0 mm | - | 62 W/m² | - |
| 1787792958 | 31.11° C | 34% | 1005.5 hPa | 0 mm | - | 74 W/m² | - |
| 1787792653 | 31.11° C | 28% | 1005.4 hPa | 0 mm | - | 80 W/m² | - |
| 1787792350 | 31.11° C | 31% | 1005.4 hPa | 0 mm | - | 90 W/m² | - |
| 1787792044 | 31.11° C | 31% | 1005.5 hPa | 0 mm | - | 89 W/m² | - |
| 1787791743 | 31.11° C | 31% | 1005.4 hPa | 0 mm | - | 67 W/m² | - |
| 1787791438 | 30.56° C | 32% | 1005.4 hPa | 0 mm | - | 76 W/m² | - |
| 1787791133 | 30° C | 31% | 1005.4 hPa | 0 mm | - | 63 W/m² | - |
| 1787790829 | 30.56° C | 30% | 1005.3 hPa | 0 mm | - | 60 W/m² | - |
| 1787790529 | 30.56° C | 29% | 1005 hPa | 0 mm | - | 63 W/m² | - |
| 1787790224 | 31.11° C | 27% | 1005.4 hPa | 0 mm | - | 50 W/m² | - |
| 1787789920 | 31.67° C | 26% | 1005.3 hPa | 0 mm | - | 45 W/m² | - |
| 1787789619 | 31.67° C | 26% | 1005.4 hPa | 0 mm | - | 44 W/m² | - |
| 1787789318 | 31.67° C | 25% | 1005.4 hPa | 0 mm | - | 46 W/m² | - |
| 1787789013 | 33.33° C | 26% | 1005.3 hPa | 0 mm | - | 53 W/m² | - |
| 1787788711 | 33.89° C | 26% | 1005.5 hPa | 0 mm | - | 141 W/m² | - |
| 1787788411 | 33.89° C | 26% | 1005.5 hPa | 0 mm | - | 243 W/m² | - |
| 1787788106 | 33.89° C | 26% | 1005.8 hPa | 0 mm | - | 256 W/m² | - |
| 1787787801 | 33.33° C | 29% | 1005.6 hPa | 0 mm | - | 256 W/m² | - |
| 1787787500 | 32.78° C | 29% | 1005.8 hPa | 0 mm | - | 196 W/m² | - |
* Rain latest hour (hover to see other rain measurements)
** Current wind speed in m/s (hover to see current wind gust speed)